Dewpoint
62 62 62 62 62 61 61 61 61 60 60 60 60 59 59 59 59 59 59 59 58 58 58 58 58 58 57 51 50 49 56 56 52 51 49 47 46 44 41 40 39 38 38 37 38 39 39
57 57 57 56 57 57 56 56 57 58 59 59 59 59 59 59 59 59 59 59 58 58 58 58 58 58 55 47 54 51 50 50 50 49 48 48 46 44 42 41 40 40 40 41 42 41 41
56 54 54 53 54 53 53 53 54 54 54 54 54 54 55 57 58 58 59 58 58 58 58 58 58 58 53 50 53 53 52 51 50 49 48 49 48 46 45 43 44 45 43 44 43 42 41
52 52 52 52 52 52 52 51 52 52 52 52 52 52 52 52 52 53 54 56 57 57 58 58 58 56 50 55 55 53 52 51 51 51 50 50 50 50 49 49 48 45 45 41 40 40 39
49 49 49 49 49 49 51 50 50 49 49 49 50 51 50 50 50 50 50 51 54 56 57 57 55 53 48 56 54 54 53 51 51 52 52 53 51 50 49 46 43 43 38 39 38 38 38
47 46 46 46 46 47 48 49 49 48 48 48 48 48 48 49 49 49 48 49 52 55 56 57 55 50 51 52 54 54 54 53 51 52 52 51 50 46 46 43 35 37 38 37 36 35 37
44 44 43 43 43 43 44 45 45 46 48 47 47 47 47 47 47 47 47 50 50 48 51 47 47 46 45 49 54 53 54 53 52 52 45 48 43 41 43 43 42 40 37 35 34 35 37
44 44 44 44 44 44 44 43 43 44 45 45 45 46 46 46 46 47 47 47 47 47 42 49 48 47 47 48 49 51 54 51 49 44 46 44 40 42 43 44 43 42 40 38 39 39 38
41 41 41 40 40 40 41 43 43 43 44 44 44 44 45 44 45 46 45 45 45 48 41 42 46 46 46 47 45 48 53 50 47 44 44 41 40 43 41 40 40 41 40 38 37 37 38
41 41 40 39 39 39 42 41 41 41 41 42 44 43 44 44 42 43 43 41 44 47 35 36 38 40 42 44 44 45 52 48 46 42 43 42 40 39 39 40 38 37 38 37 36 36 35
38 38 38 39 41 40 39 39 40 40 39 40 42 43 42 43 41 38 42 43 44 45 21 35 35 40 41 41 39 40 46 49 44 43 43 40 41 40 37 37 38 35 37 36 36 36 37
38 38 37 37 37 38 39 41 41 40 40 38 40 41 42 38 38 40 40 40 42 28 21 32 37 37 41 41 41 39 42 48 47 44 42 41 39 40 40 39 38 38 39 39 38 37 33
36 37 37 38 38 38 38 38 39 39 41 41 39 40 40 39 32 39 39 36 27 21 32 25 31 35 37 37 39 40 41 43 40 37 37 40 41 41 40 40 41 41 39 33 31 31 29
39 39 39 40 40 40 40 40 40 40 40 40 41 42 37 34 34 38 34 29 19 22 20 32 31 30 34 34 36 38 39 38 41 41 37 35 33 39 41 40 38 40 38 33 27 29 31
39 40 40 40 40 40 40 40 40 41 40 40 41 36 36 34 39 38 27 20 14 25 28 28 24 25 30 35 33 35 37 37 36 37 35 34 33 35 36 38 41 38 36 38 35 34 32
41 42 42 42 42 42 42 42 42 41 40 40 33 31 29 35 40 30 22 13 19 27 28 26 23 28 26 26 29 30 32 32 31 32 33 30 28 32 33 37 36 38 39 35 35 27 27
42 41 41 40 41 41 42 42 41 41 40 41 32 25 33 41 40 27 17 14 15 16 22 21 26 25 24 22 26 27 30 32 34 33 34 32 30 30 33 32 31 32 32 32 30 28 28
41 41 40 41 41 40 40 40 40 41 41 39 31 24 38 41 26 27 20 18 18 15 14 23 27 23 20 26 26 27 27 30 34 33 31 33 30 26 29 33 34 33 31 31 26 25 28
40 40 41 41 40 39 39 40 39 39 40 36 31 26 35 38 20 20 21 19 19 18 17 12 17 23 29 26 24 25 30 31 34 31 30 31 28 23 24 29 32 30 31 31 30 29 26
40 40 40 40 40 40 39 39 39 40 40 38 31 23 26 31 26 24 20 16 14 18 25 22 17 16 20 19 23 23 23 30 30 25 31 31 28 25 21 22 26 25 27 31 29 25 25
40 40 40 40 40 40 41 41 41 40 39 38 31 25 24 19 22 25 23 21 16 14 20 24 26 20 24 20 17 13 21 17 18 24 28 29 21 21 20 16 17 19 17 20 25 26 22
41 41 41 41 40 39 39 39 40 41 40 35 28 25 26 20 19 19 20 18 17 14 18 18 21 22 26 22 15 15 16 16 16 19 19 23 19 18 15 12 10 10 12 15 13 14 20
40 40 40 40 40 39 39 40 40 40 40 34 33 33 30 22 18 19 16 16 14 22 20 18 19 19 20 18 17 18 20 20 20 19 19 19 18 16 8 12 13 10 16 12 8 11 13
40 40 40 41 41 41 40 40 40 40 40 38 36 34 28 20 20 17 16 17 16 17 21 20 19 17 17 21 19 17 17 17 17 18 20 21 19 16 11 9 6 6 14 14 13 12 12
39 39 39 40 40 41 40 40 41 40 41 40 38 33 29 23 20 20 20 22 19 18 20 21 21 22 23 22 17 13 10 13 13 14 15 19 19 15 12 7 5 5 6 12 12 8 11
38 39 38 41 41 41 41 41 41 39 39 39 38 39 32 27 22 25 24 25 21 17 17 18 22 23 22 20 17 11 4 2 2 14 23 19 19 18 12 9 2 8 16 17 15 3 15
38 38 38 39 39 40 40 40 41 40 39 38 36 40 34 28 23 25 21 21 23 21 20 21 21 23 25 20 16 11 8 9 6 4 9 20 22 17 14 12 9 16 16 19 8 13 18
38 38 38 38 38 39 39 40 40 40 39 36 35 40 35 30 26 29 27 24 27 23 20 26 22 25 24 20 17 15 14 12 12 9 13 18 18 16 16 16 8 19 19 13 21 20 21
39 39 38 38 38 38 38 39 40 40 40 37 34 39 39 33 28 32 31 30 29 28 26 28 24 26 28 24 25 24 17 17 14 10 20 14 18 19 15 14 22 25 24 24 23 23 23
Wind_Speed
12 12 13 13 15 17 17 18 19 21 21 23 22 22 21 20 20 20 21 22 20 20 19 19 16 12 5 11 16 10 11 18 13 7 12 14 15 18 24 20 24 28 32 32 28 26 36
6 8 9 9 8 9 11 10 8 10 16 21 22 22 22 22 21 21 22 22 21 21 21 20 18 14 11 32 10 26 23 22 27 24 23 17 18 23 26 31 30 28 32 34 31 38 38
14 14 13 13 11 11 11 10 10 9 9 9 10 10 9 12 17 19 20 20 20 22 22 21 20 16 22 35 12 20 23 29 28 25 24 19 20 22 17 23 19 24 31 29 29 34 32
16 15 13 11 10 10 10 9 11 12 11 10 9 8 8 8 9 11 14 20 23 23 22 21 20 15 30 14 34 24 26 31 30 29 27 25 21 20 22 10 8 16 17 27 18 23 26
13 13 12 12 12 12 9 9 10 10 11 12 12 11 10 11 12 12 13 16 18 20 20 19 13 9 16 11 28 38 37 39 22 28 20 13 18 15 8 20 15 11 34 35 32 20 26
10 11 10 10 11 10 11 11 9 10 10 10 12 13 14 15 14 16 16 19 14 11 12 13 7 7 8 7 11 31 34 34 20 11 11 11 11 14 13 14 35 30 28 26 29 14 17
6 8 8 9 9 10 11 11 10 11 10 9 10 11 13 14 18 17 14 5 4 7 14 19 16 26 15 21 12 19 24 31 22 10 15 18 16 27 26 30 32 35 41 44 29 29 31
9 9 8 9 10 10 10 10 10 10 11 11 12 12 12 14 17 17 10 6 3 7 11 24 36 40 32 9 12 20 15 20 17 20 19 11 41 27 26 31 33 31 34 37 35 26 28
8 8 9 10 11 12 12 12 11 13 14 13 12 13 14 17 19 10 9 4 15 14 10 13 27 35 35 33 38 25 28 17 21 35 32 38 50 32 30 34 35 34 39 35 36 29 32
7 7 7 9 10 11 10 10 12 13 13 13 14 15 13 19 10 5 3 13 11 8 10 8 14 24 35 33 41 39 38 23 17 32 36 31 47 36 32 41 33 40 35 38 36 24 23
5 7 8 9 9 9 10 10 11 12 14 13 13 12 12 10 11 7 6 9 12 3 12 9 12 4 7 33 26 33 42 33 44 28 16 30 27 27 41 54 38 48 28 36 33 29 30
6 6 8 9 10 10 11 11 11 12 13 14 12 12 12 7 7 8 11 13 2 8 12 7 3 7 14 28 28 12 34 40 27 38 42 45 37 35 37 34 38 44 37 38 31 27 29
5 7 8 10 9 9 10 12 13 13 13 13 13 12 11 10 7 8 11 8 7 10 4 7 6 5 16 19 24 27 22 34 31 21 32 36 43 46 37 32 19 31 25 23 22 26 33
7 7 9 11 12 12 12 12 13 13 13 11 12 10 8 11 10 7 8 6 12 4 19 7 7 13 6 10 20 24 22 29 33 35 14 21 26 38 35 49 28 24 34 19 12 12 18
9 10 10 11 12 13 13 13 13 12 12 11 8 7 7 2 4 7 6 12 5 4 5 12 15 14 12 5 9 5 15 21 10 9 24 16 22 4 9 6 24 44 30 36 31 32 18
10 10 11 12 13 13 13 14 15 13 10 6 8 10 5 1 3 7 8 13 7 4 7 5 6 5 5 9 7 8 3 3 1 3 4 1 3 4 6 4 5 8 4 21 13 17 23
9 9 9 10 10 11 11 11 14 11 5 3 5 6 5 2 7 4 8 7 11 13 9 5 4 4 8 10 8 8 3 4 5 1 0 4 2 3 3 2 2 3 2 1 1 3 14
9 9 9 10 10 11 10 11 12 11 7 5 3 5 4 3 5 3 7 6 5 13 15 10 4 10 10 3 6 5 5 8 11 8 5 3 3 3 3 2 2 3 5 5 6 5 3
10 11 10 10 10 10 11 10 10 9 5 1 3 6 4 1 7 9 9 15 13 15 16 11 9 8 5 3 4 4 5 10 8 8 6 6 3 4 5 5 5 3 2 3 1 0 7
11 11 10 10 11 11 11 11 11 7 2 5 1 5 4 6 10 11 14 14 16 10 14 15 17 16 11 9 6 5 5 1 5 7 4 6 2 6 6 7 4 2 3 3 4 5 5
9 10 10 10 11 12 12 11 10 9 4 6 4 5 4 6 8 11 12 9 12 10 7 2 8 13 4 2 6 6 3 7 3 2 1 2 4 5 8 7 6 8 7 4 9 6 7
10 10 9 9 10 11 11 11 12 8 7 5 4 5 5 15 13 13 11 11 13 17 8 5 8 13 6 5 7 11 10 9 6 3 3 3 4 6 11 10 11 14 15 14 15 16 18
10 10 10 10 9 10 11 10 10 9 6 5 6 5 5 10 15 13 15 16 14 4 8 12 7 8 5 6 7 11 11 12 14 14 12 8 4 4 11 5 7 11 19 19 17 17 13
12 12 13 12 11 10 9 10 12 13 9 7 6 6 7 15 12 16 17 16 16 14 15 16 15 13 4 6 13 14 17 18 19 19 17 9 8 6 9 6 9 3 3 3 7 9 10
12 13 14 15 12 10 11 13 15 16 10 9 5 5 4 12 14 17 18 15 18 15 16 17 16 14 9 12 11 9 11 11 19 25 24 22 17 10 7 12 13 16 8 6 6 9 4
11 12 12 14 12 12 13 15 13 13 18 3 6 6 4 8 2 7 6 12 16 12 12 15 14 12 11 9 10 10 11 7 6 5 3 19 22 17 9 11 7 7 5 2 2 12 8
11 12 12 13 12 13 14 15 15 11 12 8 3 5 3 6 5 5 6 5 3 4 7 6 4 5 10 8 13 16 16 7 10 10 6 8 14 25 20 13 7 4 3 2 8 2 6
10 12 12 13 13 14 14 14 13 13 10 8 4 2 3 4 9 6 7 10 7 6 8 2 6 4 4 7 6 10 8 8 10 14 7 7 8 14 16 10 9 2 3 7 5 4 6
10 12 13 14 14 14 15 16 13 11 8 5 2 1 5 7 6 5 11 14 15 14 12 3 5 4 3 5 3 5 8 5 11 10 7 5 5 2 4 2 2 0 1 1 5 6 9
Wind_Direction
261 262 262 267 271 268 264 264 263 265 265 264 261 258 255 252 253 257 260 261 260 257 255 250 243 233 211 226 219 236 137 168 190 244 264 266 261 264 258 262 267 263 268 272 273 274 269
71 46 57 39 30 44 41 22 2 317 291 275 268 263 259 256 255 253 255 256 257 256 251 246 237 219 225 245 237 240 238 226 242 258 261 258 257 269 281 269 264 267 278 279 281 274 276
68 71 56 42 48 49 38 25 22 38 23 15 17 15 345 314 284 264 262 261 260 259 253 244 235 221 230 241 224 227 229 237 245 249 252 248 251 264 274 285 279 275 275 277 265 267 266
62 57 56 51 43 41 36 23 24 26 25 10 15 12 360 355 339 327 307 280 267 260 252 245 240 236 254 226 230 226 240 246 246 249 251 253 266 260 253 257 266 263 266 271 276 266 264
58 49 39 32 31 26 21 21 23 16 13 1 3 4 2 353 336 326 319 303 287 264 253 244 239 217 263 166 210 217 220 238 241 238 243 238 240 231 201 225 253 212 267 264 275 265 268
50 40 27 19 12 1 4 9 3 356 351 347 348 344 346 335 327 318 320 296 270 267 247 242 220 216 222 193 182 220 221 231 235 173 180 184 215 208 194 195 244 252 252 253 256 266 255
43 36 20 13 4 351 346 357 351 356 347 338 339 337 333 325 318 320 337 344 244 228 208 208 197 217 247 213 172 196 207 218 213 198 189 191 214 216 206 206 230 247 261 269 273 293 293
52 42 26 13 8 358 344 340 337 340 338 342 348 343 336 323 312 312 298 255 344 324 278 231 245 246 246 247 221 203 156 184 198 204 178 204 234 229 227 224 230 240 255 259 274 277 272
34 27 18 8 1 346 344 350 343 343 337 328 324 325 333 322 314 294 250 325 326 324 257 240 228 241 241 236 241 216 177 198 201 199 200 210 238 219 228 236 233 232 239 258 271 278 271
38 28 5 355 344 341 344 339 332 333 331 333 331 319 318 323 290 336 255 332 319 307 256 245 228 247 233 221 239 230 193 193 220 231 213 226 252 236 235 235 227 248 236 254 263 265 258
17 3 354 351 350 347 329 330 328 323 322 328 330 332 322 320 301 296 312 296 305 246 250 189 219 302 228 201 221 217 208 205 224 214 199 224 222 225 237 237 240 247 252 255 250 249 251
19 1 346 335 333 334 335 337 333 326 319 316 317 321 327 299 282 292 322 317 329 229 241 213 235 218 213 200 221 240 203 206 229 235 232 238 242 226 232 247 255 250 248 252 261 238 241
345 355 338 325 326 324 323 324 318 317 326 314 313 311 295 294 293 326 318 308 250 234 335 240 270 254 242 227 222 228 214 203 214 212 224 236 241 244 245 238 243 240 242 243 234 224 235
331 331 315 313 319 319 317 315 311 309 317 322 306 306 297 277 281 306 298 241 235 262 254 21 328 314 275 257 243 233 234 229 226 231 235 222 238 232 224 232 227 217 212 221 241 211 241
349 340 326 321 320 315 312 308 308 306 301 326 302 292 289 314 305 219 242 230 276 305 347 348 322 271 255 274 352 340 241 245 243 265 225 235 237 32 10 227 231 230 223 234 245 260 276
330 323 329 324 319 318 317 315 305 291 309 320 309 303 281 333 244 207 220 242 263 308 315 330 313 15 308 331 328 336 217 351 54 61 10 153 259 43 336 15 16 237 312 219 204 238 239
352 351 352 345 338 335 327 331 342 315 297 204 289 299 55 278 180 174 233 256 288 283 289 279 275 307 289 313 306 301 315 51 337 142 138 34 223 104 59 231 141 49 201 346 303 290 241
348 347 349 342 346 343 343 344 342 342 132 190 295 278 96 174 241 221 246 238 301 288 272 270 290 279 268 261 277 280 330 4 24 2 11 356 346 250 133 141 137 195 182 171 258 156 243
3 6 6 357 341 336 335 336 333 341 223 167 259 271 132 217 268 256 263 270 265 276 272 263 263 250 237 282 282 279 12 357 358 28 12 355 230 208 185 173 184 207 194 148 129 172 214
4 360 356 351 341 333 330 327 326 322 346 147 261 279 228 215 248 270 288 286 277 270 281 270 256 264 261 261 241 295 324 30 353 358 269 322 283 344 359 29 33 107 203 176 171 206 172
3 0 358 3 358 354 349 343 329 319 184 168 203 259 302 263 253 250 265 273 286 283 244 33 321 236 182 275 295 269 312 333 337 138 156 311 291 329 325 324 292 277 276 228 221 225 236
3 355 341 334 340 346 342 340 340 338 178 230 237 250 238 271 273 269 260 260 275 279 275 315 234 265 253 240 272 296 308 314 295 280 312 255 279 315 300 286 276 278 265 254 252 250 245
14 9 8 360 343 330 325 330 338 337 204 236 230 254 261 270 265 266 264 260 273 271 273 259 264 289 277 288 327 310 296 286 276 282 294 284 270 267 276 292 302 274 240 249 256 241 253
31 26 19 7 0 6 1 342 324 306 265 257 207 234 219 247 247 259 267 270 267 266 253 280 287 281 313 322 311 282 264 262 260 254 243 242 246 267 274 267 266 37 87 278 278 285 276
25 23 21 26 27 23 8 354 352 351 303 237 222 195 266 256 268 279 268 260 278 269 262 275 271 267 277 290 296 278 261 250 249 243 234 224 228 246 246 246 277 288 263 228 249 288 278
28 26 21 18 19 10 0 353 352 1 12 263 278 173 246 296 291 296 273 238 259 265 267 260 262 262 253 247 245 252 259 282 271 189 217 220 223 222 226 250 250 69 94 108 305 279 57
28 24 20 16 6 0 355 354 2 1 6 340 279 175 223 281 291 280 272 300 256 242 265 277 279 245 211 226 238 248 256 250 255 253 229 185 204 221 227 241 265 2 292 210 248 67 27
22 17 11 6 2 358 354 346 342 352 0 341 329 224 233 261 283 250 242 267 268 238 267 358 301 198 219 235 247 237 246 231 243 256 267 242 212 208 225 221 256 62 181 247 32 340 3
10 3 0 358 356 352 350 346 337 333 359 353 312 339 319 243 289 285 271 264 241 258 286 248 287 311 284 284 256 259 228 231 238 252 190 236 213 279 254 33 120 69 260 37 345 335 332